TimeCDT,TemperatureF,Dew PointF,Humidity,Sea Level PressureIn,VisibilityMPH,Wind Direction,Wind SpeedMPH,Gust SpeedMPH,PrecipitationIn,Events,Conditions,WindDirDegrees,DateUTC
12:15 AM,73.4,60.8,65,30.00,10.0,Calm,Calm,-,N/A,,Clear,0,2013-10-06 05:15:00
12:35 AM,71.6,60.8,69,29.99,10.0,Calm,Calm,-,N/A,,Clear,0,2013-10-06 05:35:00
12:55 AM,71.6,60.8,69,29.99,10.0,Calm,Calm,-,N/A,,Clear,0,2013-10-06 05:55:00
1:15 AM,71.6,60.8,69,29.99,10.0,SW,3.5,-,N/A,,Clear,220,2013-10-06 06:15:00
1:35 AM,69.8,60.8,73,29.99,10.0,Calm,Calm,-,N/A,,Clear,0,2013-10-06 06:35:00
1:55 AM,69.8,60.8,73,29.98,10.0,Calm,Calm,-,N/A,,Clear,0,2013-10-06 06:55:00
2:15 AM,66.2,60.8,83,29.98,10.0,Calm,Calm,-,N/A,,Clear,0,2013-10-06 07:15:00
2:35 AM,64.4,60.8,88,29.97,10.0,Calm,Calm,-,N/A,,Clear,0,2013-10-06 07:35:00
2:55 AM,64.4,60.8,88,29.97,10.0,Calm,Calm,-,N/A,,Clear,0,2013-10-06 07:55:00
3:15 AM,62.6,60.8,94,29.96,10.0,Calm,Calm,-,N/A,,Clear,0,2013-10-06 08:15:00
3:35 AM,62.6,60.8,94,29.96,10.0,Calm,Calm,-,N/A,,Clear,0,2013-10-06 08:35:00
3:55 AM,62.6,59.0,88,29.96,7.0,Calm,Calm,-,N/A,,Clear,0,2013-10-06 08:55:00
4:15 AM,62.6,59.0,88,29.96,7.0,Calm,Calm,-,N/A,,Clear,0,2013-10-06 09:15:00
4:35 AM,62.6,60.8,94,29.97,10.0,Calm,Calm,-,N/A,,Mostly Cloudy,0,2013-10-06 09:35:00
4:55 AM,64.4,60.8,88,29.98,10.0,Calm,Calm,-,N/A,,Overcast,0,2013-10-06 09:55:00
5:15 AM,64.4,60.8,88,29.98,10.0,Calm,Calm,-,N/A,,Overcast,0,2013-10-06 10:15:00
5:35 AM,64.4,60.8,88,29.98,10.0,Calm,Calm,-,N/A,,Overcast,0,2013-10-06 10:35:00
5:55 AM,64.4,60.8,88,29.99,10.0,Calm,Calm,-,N/A,,Overcast,0,2013-10-06 10:55:00
6:15 AM,64.4,60.8,88,29.98,10.0,Calm,Calm,-,N/A,,Overcast,0,2013-10-06 11:15:00
6:35 AM,64.4,60.8,88,29.98,10.0,Calm,Calm,-,N/A,,Overcast,0,2013-10-06 11:35:00
6:55 AM,68.0,60.8,78,29.98,10.0,Calm,Calm,-,N/A,,Overcast,0,2013-10-06 11:55:00
7:15 AM,68.0,60.8,78,29.99,10.0,Calm,Calm,-,N/A,,Overcast,0,2013-10-06 12:15:00
7:35 AM,69.8,60.8,73,29.98,10.0,Calm,Calm,-,N/A,,Overcast,0,2013-10-06 12:35:00
7:55 AM,69.8,60.8,73,29.99,10.0,Calm,Calm,-,N/A,,Overcast,0,2013-10-06 12:55:00
8:15 AM,71.6,60.8,69,29.99,10.0,Calm,Calm,-,N/A,,Overcast,0,2013-10-06 13:15:00
8:35 AM,69.8,60.8,73,29.99,10.0,Calm,Calm,-,N/A,,Overcast,0,2013-10-06 13:35:00
8:55 AM,71.6,60.8,69,29.98,10.0,Calm,Calm,-,N/A,,Overcast,0,2013-10-06 13:55:00
9:15 AM,71.6,60.8,69,29.98,10.0,Calm,Calm,-,N/A,,Overcast,0,2013-10-06 14:15:00
9:35 AM,73.4,62.6,69,29.97,10.0,Calm,Calm,-,N/A,,Mostly Cloudy,0,2013-10-06 14:35:00
9:55 AM,77.0,62.6,61,29.97,10.0,South,8.1,-,N/A,,Mostly Cloudy,190,2013-10-06 14:55:00
10:15 AM,75.2,64.4,69,29.97,7.0,South,5.8,-,N/A,,Scattered Clouds,170,2013-10-06 15:15:00
10:35 AM,77.0,64.4,65,29.96,10.0,South,5.8,-,N/A,,Scattered Clouds,180,2013-10-06 15:35:00
10:55 AM,78.8,62.6,57,29.96,10.0,South,9.2,-,N/A,,Scattered Clouds,190,2013-10-06 15:55:00
11:15 AM,78.8,62.6,57,29.96,10.0,South,8.1,-,N/A,,Scattered Clouds,180,2013-10-06 16:15:00
11:35 AM,80.6,62.6,54,29.95,10.0,South,9.2,-,N/A,,Mostly Cloudy,180,2013-10-06 16:35:00
11:55 AM,78.8,62.6,57,29.95,7.0,South,6.9,-,N/A,,Mostly Cloudy,180,2013-10-06 16:55:00
12:15 PM,78.8,62.6,57,29.94,7.0,South,4.6,-,N/A,,Mostly Cloudy,170,2013-10-06 17:15:00
12:35 PM,78.8,64.4,61,29.93,7.0,South,6.9,-,N/A,,Mostly Cloudy,190,2013-10-06 17:35:00
12:55 PM,77.0,64.4,65,29.93,10.0,SW,6.9,-,N/A,,Overcast,220,2013-10-06 17:55:00
1:15 PM,77.0,64.4,65,29.92,7.0,SSE,4.6,-,N/A,,Overcast,160,2013-10-06 18:15:00
1:35 PM,77.0,64.4,65,29.90,10.0,SSW,4.6,-,N/A,,Mostly Cloudy,200,2013-10-06 18:35:00
1:55 PM,78.8,64.4,61,29.89,10.0,SW,5.8,-,N/A,,Scattered Clouds,220,2013-10-06 18:55:00
2:15 PM,77.0,64.4,65,29.88,10.0,SSW,3.5,-,N/A,,Scattered Clouds,200,2013-10-06 19:15:00
2:35 PM,77.0,64.4,65,29.86,5.0,South,3.5,-,N/A,,Haze,190,2013-10-06 19:35:00
2:55 PM,77.0,64.4,65,29.85,10.0,SSW,3.5,-,N/A,,Clear,210,2013-10-06 19:55:00
3:15 PM,77.0,64.4,65,29.85,10.0,SW,3.5,-,N/A,,Clear,220,2013-10-06 20:15:00
3:35 PM,75.2,66.2,73,29.85,7.0,Calm,Calm,-,N/A,Rain,Light Rain,0,2013-10-06 20:35:00
3:55 PM,73.4,68.0,83,29.87,10.0,Calm,Calm,-,N/A,Rain,Light Rain,0,2013-10-06 20:55:00
4:15 PM,73.4,66.2,78,29.86,10.0,SSW,3.5,-,N/A,Rain,Light Rain,210,2013-10-06 21:15:00
4:35 PM,71.6,68.0,88,29.85,7.0,Calm,Calm,-,N/A,,Clear,0,2013-10-06 21:35:00
4:55 PM,71.6,68.0,88,29.86,7.0,Calm,Calm,-,N/A,,Scattered Clouds,0,2013-10-06 21:55:00
5:15 PM,71.6,66.2,83,29.87,7.0,Calm,Calm,-,N/A,,Mostly Cloudy,0,2013-10-06 22:15:00
5:35 PM,71.6,66.2,83,29.87,10.0,SSW,3.5,-,N/A,Rain,Light Rain,200,2013-10-06 22:35:00
5:55 PM,71.6,64.4,78,29.88,7.0,SSW,5.8,-,N/A,Rain,Rain,210,2013-10-06 22:55:00
6:15 PM,69.8,64.4,83,29.87,10.0,SW,8.1,-,N/A,Rain,Light Rain,220,2013-10-06 23:15:00
6:35 PM,69.8,64.4,83,29.87,10.0,SSW,6.9,-,N/A,,Light Drizzle,200,2013-10-06 23:35:00
6:55 PM,69.8,64.4,83,29.88,10.0,SSW,4.6,-,N/A,,Mostly Cloudy,210,2013-10-06 23:55:00
7:15 PM,69.8,64.4,83,29.88,10.0,SSW,4.6,-,N/A,,Mostly Cloudy,210,2013-10-07 00:15:00
7:35 PM,68.0,64.4,88,29.88,10.0,Calm,Calm,-,N/A,,Scattered Clouds,0,2013-10-07 00:35:00
7:55 PM,68.0,64.4,88,29.88,7.0,Calm,Calm,-,N/A,,Scattered Clouds,0,2013-10-07 00:55:00
8:15 PM,68.0,64.4,88,29.89,10.0,Calm,Calm,-,N/A,,Clear,0,2013-10-07 01:15:00
8:35 PM,68.0,64.4,88,29.89,10.0,Calm,Calm,-,N/A,,Scattered Clouds,0,2013-10-07 01:35:00
8:55 PM,68.0,64.4,88,29.89,10.0,Calm,Calm,-,N/A,,Mostly Cloudy,0,2013-10-07 01:55:00
9:15 PM,68.0,64.4,88,29.89,7.0,Calm,Calm,-,N/A,,Overcast,0,2013-10-07 02:15:00
9:35 PM,68.0,64.4,88,29.88,10.0,Calm,Calm,-,N/A,,Overcast,0,2013-10-07 02:35:00
9:55 PM,68.0,64.4,88,29.89,7.0,Calm,Calm,-,N/A,Rain,Light Rain,0,2013-10-07 02:55:00
10:15 PM,68.0,64.4,88,29.88,4.0,Calm,Calm,-,N/A,Rain,Light Rain,0,2013-10-07 03:15:00
10:35 PM,62.6,59.0,88,29.90,3.0,NNW,11.5,18.4,0.01,Rain,Heavy Rain,340,2013-10-07 03:35:00
10:55 PM,59.0,55.4,88,29.93,4.0,ENE,8.1,-,0.01,Rain,Heavy Rain,60,2013-10-07 03:55:00
11:15 PM,57.2,53.6,88,29.92,5.0,NNE,9.2,-,N/A,Rain,Rain,20,2013-10-07 04:15:00
11:35 PM,55.4,51.8,88,29.93,7.0,North,6.9,-,N/A,,Overcast,10,2013-10-07 04:35:00
11:55 PM,55.4,53.6,94,29.93,7.0,NNE,4.6,-,N/A,Rain,Light Rain,20,2013-10-07 04:55:00